www.pogodaiklimat.ru

Погода и климат >> Архив погоды >> Финляндия >> Эмасало


ПОГОДА на Эмасало

  • Прогноз погоды на Эмасало
  • Монитор погоды на Эмасало

АРХИВ ПОГОДЫ на Эмасало

Время (UTC), дата Ветер
(напр.,м/с)
 
Видим.   Явления Облачность Т
(С)
Тd
(С)
f
(%)
Тe
(С)
Тes
(С)
Комфортность P
(гПа)
Po
(гПа)
Тmin
(С)
Tmax
(С)
R
(мм)
R24
(мм)
S
(см)
01 18.08 ЮВ 9 н/о н/о +17.1 +14.2 83 +16 +16 1013.6 1010.4
02 18.08 ЮВ 8 н/о н/о +16.7 +14.5 87 +15 +15 1013.4 1010.2
03 18.08 ЮВ 9-10
{10}
н/о н/о +16.6 +14.2 86 +15 +15 1013.0 1009.9
04 18.08 ЮВ 8 н/о н/о +16.7 +14.2 85 +15 +15 1013.1 1009.9
05 18.08 ЮВ 10 н/о н/о +17.4 +13.9 80 +16 +16 1012.9 1009.7
06 18.08 ЮВ 11-12
{12}
н/о н/о +18.3 +14.1 76 +17 +17 1012.8 1009.7 +16.6 +18.4
07 18.08 ЮВ 11 н/о н/о +18.9 +13.9 73 +19 +19 1012.9 1009.8
08 18.08 ЮВ 9-10
{11}
н/о н/о +19.5 +14.9 75 +21 +21 комфорт 1012.9 1009.8
09 18.08 ЮВ 9-10
{11}
н/о н/о +20.0 +15.1 73 +22 +22 комфорт 1012.6 1009.5
10 18.08 В 9 н/о н/о +19.5 +15.0 75 +21 +21 комфорт 1012.6 1009.4
11 18.08 В 9 н/о н/о +19.5 +14.5 73 +20 +20 1012.4 1009.3
12 18.08 В 9-11
{11}
н/о н/о +19.5 +14.1 71 +20 +20 1012.1 1009.0
13 18.08 В 10-11
{12}
н/о н/о +19.3 +13.9 71 +20 +20 1012.0 1008.8
14 18.08 В 10-12
{12}
н/о н/о +19.2 +12.7 66 +19 +19 1011.5 1008.4
15 18.08 В 10-12
{12}
н/о н/о +18.6 +13.2 71 +18 +18 1011.3 1008.2
16 18.08 В 10 н/о н/о +18.3 +13.3 73 +18 +18 1011.0 1007.9
17 18.08 В 10 н/о н/о +18.1 +14.2 78 +17 +17 1011.0 1007.8
18 18.08 В 10-11
{12}
н/о н/о +17.9 +15.0 83 +17 +17 1010.5 1007.4 +17.8 +20.5
19 18.08 В 9-11
{11}
н/о н/о +17.5 +15.0 85 +16 +16 1010.1 1006.9
20 18.08 ЮВ 9 н/о н/о +17.7 +15.1 85 +17 +17 1010.2 1007.0
21 18.08 ЮВ 10-12
{12}
н/о н/о +17.8 +14.7 82 +17 +17 1009.5 1006.4
22 18.08 ЮВ 11 н/о н/о +17.7 +14.3 80 +16 +16 1009.4 1006.3
23 18.08 ЮВ 11-12
{12}
н/о н/о +17.7 +14.3 80 +16 +16 1009.1 1005.9
00 19.08 ЮВ 11-13
{13}
н/о н/о +17.5 +14.6 83 +16 +16 1008.4 1005.2
01 19.08 ЮВ 12-14
{15}
н/о н/о +17.8 +14.4 80 +16 +16 1007.8 1004.7
02 19.08 ЮВ 11 н/о н/о +17.7 +14.7 83 +16 +16 1006.9 1003.8
03 19.08 ЮВ 12-14
{14}
н/о н/о +17.7 +14.5 82 +16 +16 1006.8 1003.6
04 19.08 ЮВ 12 н/о н/о +17.0 +14.9 87 +15 +15 1006.7 1003.5
05 19.08 ЮВ 12 н/о н/о +17.0 +14.8 87 +15 +15 1006.3 1003.1
06 19.08 ЮВ 10-12
{13}
н/о н/о +16.8 +14.9 89 +15 +15 1006.4 1003.2 +16.6 +18.1
07 19.08 Ю 8 н/о н/о +16.7 +15.3 91 +15 +15 1006.7 1003.5
08 19.08 ЮВ 9-11
{11}
н/о н/о +15.9 +15.5 97 +14 +14 1006.6 1003.4
09 19.08 ЮВ 10-12
{14}
н/о н/о +16.8 +15.6 93 +15 +15 1006.3 1003.2
10 19.08 ЮВ 9-12
{12}
н/о н/о +17.0 +15.5 91 +16 +16 1006.7 1003.6
11 19.08 ЮЗ 8 н/о н/о +17.9 +17.1 95 +17 +17 1007.2 1004.1
12 19.08 ЮЗ 10-12
{13}
н/о н/о +18.2 +15.5 84 +17 +17 1008.2 1005.1
13 19.08 ЮЗ 11 н/о н/о +18.2 +15.6 85 +17 +17 1008.7 1005.5
14 19.08 ЮЗ 12 н/о н/о +17.9 +15.2 84 +16 +16 1009.3 1006.2
15 19.08 ЮЗ 13-15
{15}
н/о н/о +17.7 +15.2 85 +16 +16 1010.1 1007.0
16 19.08 ЮЗ 12 н/о н/о +17.5 +14.6 83 +16 +16 1010.6 1007.5
17 19.08 ЮЗ 11 н/о н/о +17.2 +15.1 87 +16 +16 1011.5 1008.3
18 19.08 ЮЗ 11-13
{13}
н/о н/о +16.9 +15.2 90 +15 +15 1011.8 1008.6 +15.8 +18.5
19 19.08 ЮЗ 11 н/о н/о +16.8 +14.6 87 +15 +15 1012.3 1009.1
20 19.08 ЮЗ 10-12
{13}
н/о н/о +16.4 +14.6 89 +15 +15 1012.7 1009.5
21 19.08 З 10-12
{12}
н/о н/о +16.4 +14.3 87 +15 +15 1013.4 1010.2
22 19.08 З 9 н/о н/о +16.4 +14.1 86 +15 +15 1013.8 1010.6
23 19.08 З 8 н/о н/о +16.3 +14.4 89 +15 +15 1013.9 1010.8
00 20.08 ЮЗ 8-10
{10}
н/о н/о +16.4 +14.5 89 +15 +15 1014.1 1011.0
01 20.08 ЮЗ 8-9
{9}
н/о н/о +16.4 +15.3 93 +15 +15 1014.7 1011.5
02 20.08 ЮЗ 7 н/о н/о +16.2 +15.4 95 +15 +15 1015.1 1012.0
03 20.08 ЮЗ 8-10
{11}
н/о н/о +16.2 +15.5 96 +15 +15 1015.6 1012.4
04 20.08 ЮЗ 9 н/о н/о +16.3 +15.6 96 +15 +15 1015.9 1012.7
05 20.08 ЮЗ 6-9
{10}
н/о н/о +16.6 +15.8 95 +15 +15 1016.2 1013.0
06 20.08 ЮЗ 8-10
{10}
н/о н/о +16.5 +15.6 94 +15 +15 1016.6 1013.4 +16.1 +16.9
07 20.08 ЮЗ 9 н/о н/о +16.6 +15.4 93 +15 +15 1017.0 1013.8
08 20.08 ЮЗ 7 н/о н/о +17.3 +15.9 91 +16 +16 1017.4 1014.2
09 20.08 ЮЗ 8-10
{11}
н/о н/о +17.9 +15.9 88 +17 +17 1017.6 1014.5
10 20.08 ЮЗ 7-9
{10}
н/о н/о +18.4 +15.9 85 +18 +18 1017.9 1014.7
11 20.08 ЮЗ 8 н/о н/о +18.9 +16.3 85 +19 +19 1018.0 1014.8
12 20.08 ЮЗ 10-11
{11}
н/о н/о +19.3 +16.3 83 +20 +20 1018.2 1015.1
13 20.08 ЮЗ 12-14
{14}
н/о н/о +18.9 +15.5 81 +19 +19 1018.4 1015.2
14 20.08 ЮЗ 12 н/о н/о +18.5 +15.3 82 +18 +18 1018.7 1015.5
15 20.08 ЮЗ 12-14
{14}
н/о н/о +18.4 +15.4 83 +18 +18 1019.3 1016.1
16 20.08 ЮЗ 12 н/о н/о +17.8 +15.1 84 +16 +16 1019.3 1016.1
17 20.08 З 10 н/о н/о +17.6 +14.2 80 +16 +16 1019.3 1016.2
18 20.08 З 10-12
{13}
н/о н/о +17.0 +14.4 85 +15 +15 1019.9 1016.7 +16.5 +19.3
19 20.08 З 9 н/о н/о +17.0 +14.4 85 +16 +16 1020.1 1016.9
20 20.08 ЮЗ 8 н/о н/о +16.8 +15.1 90 +15 +15 1020.4 1017.2
21 20.08 ЮЗ 5-7
{9}
н/о н/о +16.6 +15.5 93 +16 +16 1020.7 1017.5
22 20.08 ЮЗ 7 н/о н/о +16.7 +15.8 94 +15 +15 1020.8 1017.6
23 20.08 ЮЗ 7 н/о н/о +16.7 +15.4 92 +15 +15 1021.0 1017.8
00 21.08 ЮЗ 7-7
{9}
н/о н/о +16.6 +15.7 94 +15 +15 1021.3 1018.1
01 21.08 ЮЗ 7 н/о н/о +16.4 +15.4 94 +15 +15 1021.5 1018.3
02 21.08 ЮЗ 6-8
{8}
н/о н/о +16.3 +15.6 96 +15 +15 1021.7 1018.5
03 21.08 ЮЗ 5-6
{7}
н/о н/о +16.3 +15.8 97 +15 +15 1021.9 1018.7
04 21.08 Ю 6-7
{7}
н/о н/о +16.3 +15.7 96 +15 +15 1021.9 1018.7
05 21.08 Ю 7 н/о н/о +16.5 +15.7 95 +15 +15 1021.9 1018.7
06 21.08 Ю 7-8
{8}
н/о н/о +16.7 +15.9 95 +15 +15 1022.1 1018.9 +16.2 +17.0
07 21.08 Ю 7 н/о н/о +16.9 +15.7 93 +16 +16 1022.3 1019.1
08 21.08 Ю 7 н/о н/о +17.1 +15.7 91 +16 +16 1022.2 1019.0
09 21.08 Ю 6-7
{7}
н/о н/о +17.6 +16.0 90 +17 +17 1022.3 1019.1
10 21.08 Ю 7 н/о н/о +17.9 +16.1 89 +17 +17 1022.1 1018.9
11 21.08 Ю 6 н/о н/о +18.4 +16.1 86 +18 +18 1021.8 1018.6
12 21.08 Ю 5-6
{7}
н/о н/о +18.5 +16.1 86 +19 +19 1021.4 1018.2
13 21.08 Ю 6 н/о н/о +18.3 +16.0 86 +18 +18 1020.9 1017.7
14 21.08 Ю 5 н/о н/о +18.3 +15.8 85 +18 +18 1020.6 1017.4
15 21.08 Ю 5-6
{6}
н/о н/о +17.6 +16.0 90 +17 +17 1020.4 1017.2
16 21.08 Ю 4 н/о н/о +17.6 +16.1 91 +17 +17 1020.4 1017.2
17 21.08 ЮЗ 4 н/о н/о +17.8 +15.8 88 +18 +18 1020.3 1017.1
18 21.08 ЮЗ 4-6
{6}
н/о н/о +17.0 +15.9 93 +17 +17 1020.1 1016.9 +16.7 +19.2
19 21.08 ЮЗ 7 н/о н/о +16.9 +16.0 94 +16 +16 1020.0 1016.8
20 21.08 ЮЗ 9-11
{12}
н/о н/о +16.6 +15.6 94 +15 +15 1019.8 1016.6
21 21.08 З 6-7
{11}
н/о н/о +16.4 +15.0 91 +15 +15 1019.9 1016.7
22 21.08 З 9 н/о н/о +16.3 +12.9 80 +15 +15 1020.0 1016.8
23 21.08 З 6-7
{9}
н/о н/о +15.6 +13.0 85 +14 +14 1020.1 1016.8
00 22.08 З 6-7
{8}
н/о н/о +15.4 +13.2 87 +14 +14 1020.3 1017.1
01 22.08 З 7-9
{9}
н/о н/о +15.3 +13.2 87 +13 +13 1020.6 1017.4
02 22.08 З 6 н/о н/о +15.2 +13.5 90 +14 +14 1020.7 1017.5
03 22.08 З 5-6
{7}
н/о н/о +15.3 +14.2 93 +14 +14 1020.8 1017.6
04 22.08 З 5-7
{7}
н/о н/о +15.4 +14.3 93 +14 +14 1021.0 1017.8
05 22.08 З 6-7
{7}
н/о н/о +15.8 +14.5 92 +14 +14 1021.2 1018.0
06 22.08 З 6-7
{8}
н/о н/о +16.5 +14.3 87 +15 +15 1021.3 1018.2 +15.2 +17.0
07 22.08 ЮЗ 6 н/о н/о +17.0 +14.7 86 +16 +16 1021.5 1018.3
08 22.08 З 8 н/о н/о +17.9 +13.4 75 +17 +17 1021.8 1018.6
09 22.08 ЮЗ 9-10
{10}
н/о н/о +18.2 +14.8 81 +17 +17 1022.2 1019.0
10 22.08 ЮЗ 12-13
{13}
н/о н/о +18.5 +14.3 77 +18 +18 1022.1 1018.9
11 22.08 ЮЗ 13 н/о н/о +18.3 +14.6 79 +17 +17 1022.2 1019.0
12 22.08 ЮЗ 14-16
{16}
н/о н/о +18.3 +14.7 80 +17 +17 1022.5 1019.3
13 22.08 ЮЗ 14 н/о н/о +18.1 +14.8 81 +17 +17 1022.6 1019.4
14 22.08 ЮЗ 14-17
{17}
н/о н/о +17.9 +14.6 81 +16 +16 1022.8 1019.6
15 22.08 ЮЗ 15-17
{17}
н/о н/о +17.3 +14.7 85 +15 +15 1022.8 1019.7
16 22.08 ЮЗ 13 н/о н/о +17.0 +14.5 85 +15 +15 1023.0 1019.8
17 22.08 ЮЗ 12 н/о н/о +16.7 +14.4 86 +15 +15 1023.2 1020.0
18 22.08 ЮЗ 12-14
{14}
н/о н/о +16.3 +13.6 84 +14 +14 1023.6 1020.4 +16.3 +18.8
19 22.08 ЮЗ 12-15
{15}
н/о н/о +16.1 +13.5 85 +14 +14 1023.8 1020.5
20 22.08 ЮЗ 12 н/о н/о +15.9 +13.3 85 +14 +14 1024.1 1020.9
21 22.08 З 9-10
{13}
н/о н/о +15.8 +13.0 83 +14 +14 1024.3 1021.1
22 22.08 З 8 н/о н/о +15.7 +13.3 86 +14 +14 1024.3 1021.1
23 22.08 З 8 н/о н/о +15.9 +13.5 86 +14 +14 1023.9 1020.7
00 23.08 ЮЗ 7-8
{9}
н/о н/о +16.1 +14.4 90 +15 +15 1024.0 1020.8
01 23.08 ЮЗ 8 н/о н/о +16.1 +14.9 93 +14 +14 1023.9 1020.6
02 23.08 ЮЗ 8 н/о н/о +15.9 +15.0 94 +14 +14 1023.6 1020.4
03 23.08 ЮЗ 9-11
{11}
н/о н/о +15.7 +15.0 96 +14 +14 1023.2 1020.0
04 23.08 З 9 н/о н/о +13.2 +12.7 97 +10 +10 1023.9 1020.7
05 23.08 СЗ 2 н/о н/о +13.2 +13.1 99 +12 +12 1023.6 1020.4
06 23.08 В 1-2
{3}
н/о н/о +13.2 +13.1 99 +13 +13 1023.2 1020.0 +12.8 +16.3
07 23.08 ЮЗ 1 н/о н/о +13.3 +13.2 99 +13 +13 1023.0 1019.8
08 23.08 Ю 11 н/о н/о +16.2 +15.3 94 +14 +14 1022.3 1019.1
09 23.08 Ю 10-12
{14}
н/о н/о +17.5 +15.4 87 +16 +16 1021.9 1018.7
10 23.08 Ю 10-14
{14}
н/о н/о +17.4 +15.3 87 +16 +16 1021.5 1018.3
11 23.08 ЮЗ 10 н/о н/о +18.3 +15.5 84 +18 +18 1021.3 1018.1
12 23.08 ЮЗ 11-12
{15}
н/о н/о +18.2 +15.3 83 +17 +17 1020.8 1017.7
13 23.08 ЮЗ 9 н/о н/о +17.4 +15.2 87 +16 +16 1020.4 1017.3
14 23.08 Ю 10 н/о н/о +17.2 +15.1 87 +16 +16 1019.4 1016.3
15 23.08 З 11-15
{15}
н/о н/о +15.9 +15.3 96 +14 +14 1018.9 1015.7
16 23.08 ЮЗ 10 н/о н/о +16.1 +15.4 96 +14 +14 1017.9 1014.7
17 23.08 ЮЗ 9-10
{13}
н/о н/о +15.4 +15.0 97 +13 +13 1017.2 1014.0
18 23.08 ЮЗ 11-13
{15}
н/о н/о +15.5 +15.3 99 +13 +13 1016.3 1013.1 +13.2 +18.9
19 23.08 ЮЗ 10 н/о н/о +15.5 +15.1 97 +13 +13 1016.2 1013.0
20 23.08 З 11-13
{14}
н/о н/о +15.6 +15.3 98 +13 +13 1016.1 1012.9
21 23.08 З 8-10
{14}
н/о н/о +15.6 +15.3 98 +14 +14 1016.2 1013.0
22 23.08 З 6 н/о н/о +15.4 +15.2 99 +14 +14 1016.1 1013.0
23 23.08 З 7 н/о н/о +15.7 +15.0 96 +14 +14 1016.5 1013.3
00 24.08 З 6-8
{9}
н/о н/о +15.5 +14.8 96 +14 +14 1016.7 1013.5
01 24.08 З 8-9
{9}
н/о н/о +15.5 +14.6 94 +14 +14 1017.0 1013.8
02 24.08 З 8 н/о н/о +15.2 +14.2 94 +13 +13 1017.5 1014.3
03 24.08 З 8-9
{10}
н/о н/о +14.9 +13.9 94 +13 +13 1018.1 1014.9
04 24.08 З 8 н/о н/о +14.9 +13.8 93 +13 +13 1018.5 1015.3
05 24.08 З 9 н/о н/о +14.9 +13.7 93 +13 +13 1019.0 1015.8
06 24.08 З 8-9
{10}
н/о н/о +15.7 +13.7 88 +14 +14 1019.5 1016.3 +14.8 +15.8
07 24.08 З 7 н/о н/о +16.5 +13.8 84 +15 +15 1019.8 1016.6
08 24.08 З 9 н/о н/о +17.2 +12.3 73 +16 +16 1020.4 1017.2
09 24.08 СЗ 10-13
{13}
н/о н/о +18.4 +12.6 69 +18 +18 1021.3 1018.1
10 24.08 СЗ 9 н/о н/о +19.1 +12.5 66 +19 +19 1021.7 1018.6
11 24.08 СЗ 10-12
{12}
н/о н/о +19.8 +11.6 59 +20 +20 1022.1 1018.9
12 24.08 СЗ 10-12
{12}
н/о н/о +20.2 +11.5 57 +21 +21 комфорт 1022.8 1019.6
13 24.08 СЗ 8 н/о н/о +20.3 +10.7 54 +21 +21 комфорт 1023.2 1020.1
14 24.08 СЗ 9-10
{11}
н/о н/о +20.3 +10.6 54 +21 +21 комфорт 1023.9 1020.7
15 24.08 СЗ 5-7
{10}
н/о н/о +20.6 +11.1 54 +22 +22 комфорт 1024.1 1021.0
16 24.08 СЗ 5 н/о н/о +20.6 +9.5 49 +22 +22 комфорт 1024.4 1021.2
17 24.08 СЗ 4-4
{6}
н/о н/о +19.7 +10.2 54 +21 +21 комфорт 1024.8 1021.6
18 24.08 СЗ 3-3
{4}
н/о н/о +16.8 +10.4 66 +17 +17 1025.3 1022.1 +15.7 +20.9
19 24.08 СЗ 3 н/о н/о +16.0 +10.7 71 +16 +16 1025.5 1022.3
20 24.08 СЗ 3 н/о н/о +15.1 +11.2 78 +14 +14 1025.8 1022.6
21 24.08 С 3-4
{5}
н/о н/о +15.8 +9.6 67 +15 +15 1026.1 1022.9
22 24.08 СВ 3-4
{4}
н/о н/о +14.5 +10.6 77 +14 +14 1026.4 1023.2
23 24.08 В 3 н/о н/о +14.3 +12.2 87 +13 +13 1026.8 1023.6
00 25.08 В 3-3
{4}
н/о н/о +14.5 +13.1 91 +14 +14 1027.3 1024.1
01 25.08 В 3 н/о н/о +14.3 +13.3 94 +13 +13 1027.6 1024.3

 

Местоположение метеостанции Эмасало (Финляндия): широта 60.20 долгота 25.63 высота над уровнем моря 20 м.

В архиве по умолчанию представлена погода на Эмасало за последнюю неделю. Архивные данные за месяц целиком и за предыдущие месяцы, начиная с января 2011 года, Вы можете получить, выбрав интересующий диапазон дат из раскрывающегося списка и нажав кнопку "Ввод!".


*Определитесь, кто Вы:
робот инопланетянин человек

Внимание! Время в таблицах - всемирное. Для получения местного времени необходимо прибавить поправку, которая равна 1 ч.

Смотрите также архив погоды в соседних городах и на ближайших метеорологических станциях:

Погода в Килпилахти (Финляндия) (12 км)
Погода в Порвоо (Финляндия) (21 км)
Погода на Маяке Kalbadagrund (Финляндия) (23 км)
Погода в Хельсинки университете (Финляндия) (37 км)
Погода на Острове Хармая (Финляндия) (38 км)
Погода в Хельсинки Кайсаниеми (Финляндия) (38 км)
Погода в Хельсинки (Финляндия) (40 км)
Погода в Орренгрунде (Финляндия) (45 км)
Погода в Эспо Тапиола (Финляндия) (46 км)
Погода на Хельсинском маяке (Финляндия) (48 км)

Пояснения к столбцам:

Ветер - указаны скорость ветра в м/с - средняя за 10 мин, порывы в срок и между сроками (в фигурных скобках) и направление, откуда дует ветер: С - северный, СВ - северо-восточный, В - восточный, ЮВ - юго-восточный, Ю - южный, ЮЗ - юго-западный, З - западный, СЗ - северо-западный.
Видимость - горизонтальная дальность видимости в метрах или километрах. При видимости от 1 до 10 км при отсутствии осадков обычно наблюдается дымка, при ухудшении видимости до 1 км и менее - туман. В сухую погоду видимость может ухудшаться дымом, пылью или мглою.
Явления - указаны атмосферные явления, наблюдавшиеся в срок или в последний час перед сроком; фигурными скобками обозначены явления, наблюдавшиеся между сроками (за 1-3 часа до срока); квадратными скобками обозначены град или гололедные отложения с указанием их диаметра в мм.
Облачность - указаны через наклонную черту общая и нижняя облачность в баллах и высота нижней границы облаков в метрах; квадратными скобками обозначены формы облаков: Ci - перистые, Cs - перисто-слоистые, Cc - перисто-кучевые, Ac - высококучевые, As - высокослоистые, Sc - слоисто-кучевые, Ns - слоисто-дождевые, Cu - кучевые, Cb - кучево-дождевые. Подробнее классификацию облаков см. в Атласе облаков (PDF).
T - Температура воздуха - температура, измеренная на высоте 2 м над землей.
Td - Температура точки росы - температура, при понижении до которой содержащийся в воздухе водяной пар достигнет насыщения.
f - Относительная влажность воздуха - влажноcть воздуха, измеренная на высоте 2 м над землей.
Te - Эффективная температура - температура, которую ощущает одетый по сезону человек в тени. Характеристика душности погоды. При расчете учитывается влияние влажности воздуха и скорости ветра на теплоощущения человека.
Tes - Эффективная температура на солнце - температура, которую ощущает человек, с поправкой на солнечный нагрев. Характеристика знойности погоды. Зависит от высоты солнца над горизонтом, облачности и скорости ветра. Ночью, в пасмурную погоду, а также при ветре 12 м/с и более поправка равна нулю.
P - Атмосферное давление - приведенное к уровню моря атмосферное давление.
Po - Атмосферное давление - измеренное на уровне метеостанции атмосферное давление.
Tmin - Минимальная температура - минимум температуры воздуха на высоте 2 м над землей.
Tmax - Максимальная температура - максимум температуры воздуха на высоте 2 м над землей.
R - Количество осадков - Количество выпавших осадков за период времени, мм. При наведении курсора мыши на число - период времени, за который выпало указанное количество осадков.
R24 - Количество осадков - Количество выпавших осадков за 24 часа, мм.
S - Снежный покров - Высота снежного покрова, см. При наведении курсора мыши на число - состояние снежного покрова и степень покрытия местности в баллах.